Regional Weather Roundup
Issued by NWS

Home | Current Version | Previous Version | Graphics & Text | Print | Product List | Glossary On
Versions: 1 2 3 4 5 6 7 8 9 10 11 12 13 14 15 16 17 18 19 20 21 22 23 24 25 26 27 28 29 30 31 32 33 34 35 36 37 38 39 40 41 42 43 44 45 46 47 48 49 50
826
ASUS45 KPSR 021810
RWRAZ

ARIZONA HOURLY REGIONAL WEATHER ROUNDUP
NATIONAL WEATHER SERVICE PHOENIX AZ
1100 AM MST MON MAY 02 2016

NOTE: FAIR INDICATES FEW OR NO CLOUDS BELOW 12,000 FEET WITH NO
SIGNIFICANT WEATHER AND/OR OBSTRUCTIONS TO VISIBILITY.

AZZ001>003-036-021900-
NORTHWEST ARIZONA

CITY           SKY/WX    TMP DP  RH WIND       PRES   REMARKS
BULLHEAD CITY  SUNNY     81  41  24 N17       30.04F
KINGMAN        SUNNY     70  39  32 VRB5      30.12F
6HR MIN TEMP:  49; 6HR MAX TEMP:  70;

$$

AZZ004>008-015-016-018-021900-
NORTH CENTRAL ARIZONA

CITY           SKY/WX    TMP DP  RH WIND       PRES   REMARKS
GRAND CANYON   MOSUNNY   50  36  58 NE14      30.26R
6HR MIN TEMP:  29; 6HR MAX TEMP:  52;

WILLIAMS       SUNNY     55  32  41 VRB7      30.28S
PRESCOTT       MOSUNNY   60  39  45 VRB6      30.17S
6HR MIN TEMP:  37; 6HR MAX TEMP:  60;

FLAGSTAFF      PTSUNNY   44  37  76 E8        30.25S
6HR MIN TEMP:  27; 6HR MAX TEMP:  45;

PAYSON         MOSUNNY   61  37  41 S8G14     30.19S
PAGE           CLOUDY    59  41  51 MISG      30.21F
6HR MIN TEMP:  50; 6HR MAX TEMP:  60;

$$

AZZ009>014-017-021900-
NORTHEAST ARIZONA

CITY           SKY/WX    TMP DP  RH WIND       PRES   REMARKS
WINSLOW        MOSUNNY   54  40  59 CALM      30.22F
6HR MIN TEMP:  35; 6HR MAX TEMP:  56;

SAINT JOHNS    SUNNY     57  35  43 SW5       30.19F
6HR MIN TEMP:  32; 6HR MAX TEMP:  60;

WINDOW ROCK    MOSUNNY   52  35  52 VRB5      30.25F
6HR MIN TEMP:  32; 6HR MAX TEMP:  52;

SHOW LOW       SUNNY     50  39  66 N5        30.22F
$$

AZZ023-021900-
GREATER PHOENIX AREA

CITY           SKY/WX    TMP DP  RH WIND       PRES   REMARKS
PHOENIX        MOSUNNY   80  41  24 E6        29.99F
6HR MIN TEMP:  61; 6HR MAX TEMP:  80;

BUCKEYE        SUNNY     79  41  25 E10       30.02S
GLENDALE       MOSUNNY   79  41  25 CALM      30.02F
LUKE AFB       SUNNY     79  41  25 E7        30.00S
6HR MIN TEMP:  57; 6HR MAX TEMP:  79;

DEER VALLEY    SUNNY     78  39  24 VRB5      30.01F
6HR MIN TEMP:  60; 6HR MAX TEMP:  78;

SCOTTSDALE     SUNNY     78  36  21 S6        30.02F
6HR MIN TEMP:  60; 6HR MAX TEMP:  79;

MESA-GATEWAY   SUNNY     79  37  22 E8        30.02S
CHANDLER       MOSUNNY   79  37  22 E8        30.01F
$$

AZZ027-028-021900-
SOUTHWEST MARICOPA COUNTY AND PINAL COUNTY

CITY           SKY/WX    TMP DP  RH WIND       PRES   REMARKS
CASA GRANDE    SUNNY     79  36  21 E9G16     30.03S
6HR MIN TEMP:  54; 6HR MAX TEMP:  79;

GILA BEND      SUNNY     81  38  21 NE10      29.97F
6HR MIN TEMP:  57; 6HR MAX TEMP:  82;

$$

AZZ503-504-507>509-021900-
SOUTHEAST ARIZONA

CITY           SKY/WX    TMP DP  RH WIND       PRES   REMARKS
TUCSON         SUNNY     77  30  17 SE12G18   30.05S
6HR MIN TEMP:  53; 6HR MAX TEMP:  77;

DAVIS-MONTHAN  SUNNY     76  31  18 SE8G18    30.03F
6HR MIN TEMP:  54; 6HR MAX TEMP:  76;

RYAN FIELD     SUNNY     79  32  18 SE16      30.04F
NOGALES        SUNNY     74  28  18 VRB3      30.07S
6HR MIN TEMP:  43; 6HR MAX TEMP:  74;

SIERRA VISTA   SUNNY     68  30  24 E7G17     30.14F
6HR MIN TEMP:  47; 6HR MAX TEMP:  68;

DOUGLAS        SUNNY     69  34  27 E21       30.12F
6HR MIN TEMP:  45; 6HR MAX TEMP:  70;

SAFFORD        SUNNY     68  33  27 SE17G23   30.14F
6HR MIN TEMP:  48; 6HR MAX TEMP:  69;

$$

AZZ020-021-025-026-031-021900-
SOUTHWEST ARIZONA

CITY           SKY/WX    TMP DP  RH WIND       PRES   REMARKS
YUMA           MOSUNNY   83  46  27 VRB3      29.97F
6HR MIN TEMP:  65; 6HR MAX TEMP:  84;

$$

CAZ031-033-041-043-047-048-061-021900-
SOUTHERN CALIFORNIA

CITY           SKY/WX    TMP DP  RH WIND       PRES   REMARKS
DOWNTOWN L.A.  SUNNY     70  54  56 CALM      30.02F
6HR MIN TEMP:  56; 6HR MAX TEMP:  72;

L.A. AIRPORT   MOSUNNY   64  53  67 W9        30.05S
6HR MIN TEMP:  57; 6HR MAX TEMP:  64;

SAN DIEGO      MOSUNNY   69  54  58 W10       30.03F
6HR MIN TEMP:  58; 6HR MAX TEMP:  69;

BURBANK        SUNNY     69  52  54 SE5       30.02F
6HR MIN TEMP:  54; 6HR MAX TEMP:  69;

ONTARIO        MOSUNNY   70  51  51 S3        30.03S
6HR MIN TEMP:  54; 6HR MAX TEMP:  70;

RIVERSIDE      MOSUNNY   72  50  45 CALM      30.03S
6HR MIN TEMP:  54; 6HR MAX TEMP:  72;

PALM SPRINGS   MOSUNNY   83  42  23 VRB5      30.00F
6HR MIN TEMP:  64; 6HR MAX TEMP:  83;

EL CENTRO NAS  MOSUNNY   84  46  26 SE6       29.99S
6HR MIN TEMP:  49; 6HR MAX TEMP:  84;

IMPERIAL       SUNNY     84  49  29 VRB3      29.97F
6HR MIN TEMP:  60; 6HR MAX TEMP:  84;

BLYTHE         SUNNY     83  41  22 N7        29.99F
6HR MIN TEMP:  60; 6HR MAX TEMP:  84;

NEEDLES        SUNNY     81  42  25 NW8       30.03F
6HR MIN TEMP:  62; 6HR MAX TEMP:  81;

$$

NVZ020-UTZ003-021900-
SOUTHERN NEVADA-UTAH

CITY           SKY/WX    TMP DP  RH WIND       PRES   REMARKS
LAS VEGAS      MOSUNNY   74  38  27 NE10      30.08S
6HR MIN TEMP:  59; 6HR MAX TEMP:  74;

SALT LAKE CITY MOSUNNY   64  27  24 NW7       30.21R
6HR MIN TEMP:  43; 6HR MAX TEMP:  64;

$$

NMZ009-TXZ055-021900-
NEW MEXICO-WEST TEXAS

CITY           SKY/WX    TMP DP  RH WIND       PRES   REMARKS
ALBUQUERQUE    MOSUNNY   50  31  48 CALM      30.28F
6HR MIN TEMP:  38; 6HR MAX TEMP:  52;

EL PASO        MOSUNNY   61  33  35 E9G20     30.23F
6HR MIN TEMP:  44; 6HR MAX TEMP:  62;

$$


........................KEY........................
SKY/WX - SKY CONDITION/WEATHER
TMP    - TEMPERATURE IN FAHRENHEIT
DP     - DEW POINT IN FAHRENHEIT
RH     - RELATIVE HUMIDITY IN PERCENT
WIND   - DIRECTION AND SPEED IN MILES PER HOUR (MPH)
VRB    - VARIABLE WIND DIRECTION
PRES   - MEAN SEA LEVEL PRESSURE IN INCHES OF MERCURY
         F - FALLING PRESSURE   R - RISING PRESSURE
         S - STEADY PRESSURE
VSB    - VISIBILITY IN MILES
HX     - HEAT INDEX IN FAHRENHEIT
WCI    - WIND CHILL INDEX IN FAHRENHEIT
TC     - TEMPERATURE IN CELSIUS WHICH IS ALSO KNOWN AS
         TEMPERATURE IN CENTIGRADE
AFB    - AIR FORCE BASE
         LUKE AFB IS LUKE AIR FORCE BASE
         DAVIS-MONTHAN IS DAVIS-MONTHAN AIR FORCE BASE
NAS    - NAVAL AIR STATION
         EL CENTRO NAS IS EL CENTRO NAVAL AIR STATION
N/A    - NOT AVAILABLE





USA.gov is the U.S. government's official web portal to all federal, state and local government web resources and services.